Temperature
15 15 16 16 16 16 16 16 16 16 16 16 16 16 16 16 16 16 16 16 16 16 16 16 16 16 16 16 16 16 16 16 16 16 16 16 16 15 15 15 15 15 15
15 15 16 16 16 16 16 16 16 16 16 16 16 16 16 16 16 16 16 16 16 16 16 16 16 16 16 16 16 16 16 15 15 15 15 15 15 15 15 15 15 15 15
15 15 15 15 16 16 16 16 16 16 16 16 16 16 16 16 16 16 16 16 16 16 16 16 16 16 16 16 16 16 15 15 15 15 15 14 15 15 15 15 15 15 15
15 15 15 15 15 16 16 16 16 16 16 16 16 16 16 16 15 15 15 15 15 16 16 16 16 16 16 15 15 15 15 15 15 15 14 14 14 15 15 15 15 15 15
14 14 15 15 15 15 15 15 15 16 15 15 15 15 15 15 15 15 15 15 15 15 15 15 15 15 16 15 15 15 15 15 15 15 14 14 14 15 15 15 15 15 15
14 14 14 15 15 15 15 15 15 15 15 15 15 15 15 15 15 15 15 15 15 15 15 15 15 15 15 15 15 15 15 15 15 14 14 14 14 14 15 15 15 15 15
14 14 14 15 15 15 15 15 15 15 15 15 15 15 15 15 15 15 15 15 15 15 15 15 15 15 15 15 15 15 15 15 14 14 14 14 14 15 14 15 15 15 15
14 14 14 14 14 14 15 15 15 15 15 15 15 14 14 14 14 14 14 14 14 14 14 14 15 15 15 15 15 15 15 15 14 14 14 14 14 14 14 14 14 14 14
14 14 14 14 14 14 14 14 14 14 14 14 14 14 14 14 14 14 14 14 14 14 14 14 14 14 14 14 14 14 14 14 14 14 14 14 14 14 14 14 14 14 14
14 14 14 14 14 14 14 14 14 14 14 14 14 14 14 14 14 14 14 14 14 14 14 14 14 14 14 14 14 14 14 14 13 13 13 13 14 14 14 14 14 14 14
13 13 13 13 14 14 14 14 14 14 14 14 14 14 14 13 13 13 14 14 14 14 14 14 14 14 14 14 14 14 14 13 13 13 13 13 14 14 14 14 14 14 14
13 13 13 13 13 14 14 14 14 13 13 13 13 13 13 13 13 13 13 13 13 13 13 13 13 13 13 13 13 13 13 13 13 13 13 13 13 13 13 13 14 13 13
12 13 13 13 13 13 13 13 13 13 13 13 13 13 13 13 13 13 13 13 13 13 13 13 13 13 13 13 13 13 12 12 12 12 12 13 13 13 13 13 13 13 13
12 12 13 13 13 13 13 13 13 13 13 13 13 13 13 13 13 13 13 13 13 13 13 13 13 12 12 12 12 12 12 12 12 12 12 13 13 13 13 13 13 13 13
12 12 12 12 12 12 12 13 13 13 12 12 13 13 12 12 12 12 12 12 12 12 12 12 12 12 12 12 12 12 12 12 12 11 12 12 12 12 12 12 12 12 12
11 12 12 12 12 12 12 12 12 12 12 12 12 12 12 12 12 12 12 12 12 12 12 12 12 12 12 12 12 12 11 11 11 11 11 11 11 12 12 12 12 12 12
11 11 11 11 11 12 12 12 12 12 12 12 12 12 12 12 12 12 12 12 12 12 12 11 11 11 11 11 11 11 11 11 11 11 11 11 11 11 11 11 11 11 11
11 11 11 11 11 11 11 11 11 11 11 11 11 11 11 11 12 11 11 11 11 11 11 11 11 11 11 11 11 11 11 11 11 10 10 10 10 10 10 10 11 11 11
11 11 11 11 11 11 11 11 11 11 11 11 11 11 11 11 11 11 11 11 11 11 11 11 11 10 10 10 10 10 10 10 10 10 10 10 10 10 10 10 10 10 10
10 10 10 10 10 10 10 11 11 11 11 11 11 11 11 11 11 11 11 11 11 10 10 10 10 10 10 10 10 10 10 10 10 10 9 9 9 9 9 9 9 9 10
10 10 10 10 10 10 10 10 10 10 10 10 10 10 10 10 10 10 10 10 10 10 10 10 10 9 9 9 9 9 9 9 9 9 9 9 8 9 9 9 9 9 9
10 10 10 10 10 10 10 10 10 10 10 10 10 10 10 10 10 10 10 10 10 9 9 9 9 9 9 8 8 7 8 8 8 8 8 8 8 8 8 8 8 8 8
9 10 10 10 9 9 9 9 9 9 9 10 9 9 9 9 9 9 9 9 9 9 9 9 9 8 8 8 8 7 7 7 7 7 8 7 7 7 7 7 7 7 7
9 9 9 9 9 9 9 9 9 9 9 9 9 9 9 9 9 9 9 9 8 8 8 8 8 8 8 7 7 7 7 6 6 6 7 7 7 7 7 7 7 7 7
9 9 9 9 9 9 9 9 8 8 8 8 8 8 8 8 8 8 8 8 8 8 8 8 8 8 7 7 7 6 6 6 6 5 5 6 6 6 6 6 6 6 6
9 9 8 8 8 8 8 8 8 8 8 8 8 8 8 8 8 8 8 8 8 8 7 7 7 7 7 7 6 6 6 5 5 5 4 4 4 5 5 5 5 5 5
Wind_Speed
8 10 12 11 11 11 11 11 11 11 10 10 10 9 9 8 8 8 8 7 7 7 7 7 7 6 6 7 7 6 6 6 6 7 7 7 7 6 6 5 4 6 8
10 12 13 11 11 11 11 11 10 10 10 10 9 9 9 8 8 7 7 7 7 7 6 7 6 6 6 6 6 6 5 6 5 5 5 6 6 5 4 4 3 5 6
11 12 13 12 11 11 10 10 10 10 10 9 9 8 8 7 7 7 7 7 6 6 6 6 6 6 6 6 5 5 5 5 4 4 4 3 5 4 3 3 3 2 3
10 12 12 13 11 11 10 10 9 9 9 9 8 8 7 7 7 7 7 6 6 6 6 6 5 5 5 5 4 4 3 3 3 3 3 2 2 4 2 2 2 2 2
10 11 12 12 11 11 10 9 9 8 9 9 8 7 7 6 6 6 6 6 6 5 5 5 4 4 4 4 3 3 3 3 2 4 2 1 1 3 3 3 3 3 3
9 10 12 12 11 11 10 9 9 8 8 8 8 7 7 6 6 6 5 5 5 4 4 4 4 4 3 2 2 2 2 1 3 3 3 3 2 2 3 4 4 5 5
9 9 11 11 11 10 10 9 8 8 8 8 7 7 7 6 6 6 5 5 4 3 3 3 3 3 2 2 2 1 1 2 3 2 2 3 2 2 4 5 5 6 6
8 8 10 11 11 10 10 9 8 8 8 8 7 7 6 7 6 5 5 4 4 3 2 2 2 2 1 1 1 1 0 3 4 3 3 3 1 3 5 6 6 6 7
7 7 8 9 10 11 10 9 9 9 8 7 7 7 7 6 6 5 5 4 3 3 3 1 1 1 0 0 1 0 1 3 5 4 4 3 1 4 6 6 7 7 7
6 6 7 8 8 9 9 10 9 9 8 8 7 6 6 6 5 5 4 4 3 3 3 3 1 1 1 1 1 1 3 5 5 4 4 3 2 6 7 7 6 7 7
5 5 5 6 7 7 8 8 8 8 7 6 6 5 4 3 3 3 4 4 3 3 3 3 2 1 1 1 1 2 4 4 4 4 4 3 5 7 7 6 6 7 7
5 4 4 5 5 6 6 6 6 5 5 4 4 3 2 2 2 2 3 3 2 2 1 2 2 2 3 2 2 4 4 5 4 3 3 2 5 6 6 7 7 6 6
4 4 3 4 4 4 4 4 4 4 4 3 3 2 2 1 1 1 1 1 0 1 1 2 3 2 3 2 3 3 4 4 4 3 2 1 3 5 5 6 6 6 6
3 3 3 3 3 3 3 3 3 3 3 2 2 2 1 1 1 1 1 1 1 1 2 2 3 3 3 3 3 3 4 3 4 4 3 1 3 4 5 5 6 6 6
4 3 3 3 3 3 3 3 3 3 3 3 2 2 2 1 1 1 1 1 2 2 2 3 3 3 3 3 3 3 4 4 4 4 2 1 2 4 5 6 6 6 6
4 3 2 2 3 3 3 2 2 3 3 2 2 2 1 1 1 1 1 1 2 2 3 3 3 3 3 2 3 3 4 4 4 4 4 2 1 3 5 6 6 6 7
4 3 3 2 2 3 3 3 3 2 2 2 1 1 1 1 0 1 1 1 2 3 3 3 3 2 2 2 3 3 3 3 4 4 4 4 3 1 3 5 6 7 7
4 4 3 2 2 2 2 2 2 2 2 1 1 1 0 0 0 1 1 1 2 2 2 2 2 2 2 2 2 3 3 3 3 3 3 3 3 3 2 3 5 6 7
4 4 4 3 3 2 2 2 2 2 2 1 1 1 1 0 1 1 1 1 2 2 2 2 2 2 2 2 2 2 3 3 2 2 2 3 3 3 4 3 4 4 6
3 4 4 3 3 2 2 2 2 1 1 1 1 1 2 1 1 1 1 1 1 1 1 2 2 2 2 2 2 2 2 2 2 2 2 2 2 3 4 4 4 3 4
4 3 3 3 2 2 2 2 2 1 1 1 1 1 1 1 2 2 1 1 1 1 1 2 2 1 1 2 2 2 2 2 2 1 2 2 2 2 3 4 4 4 4
3 3 3 3 3 2 1 1 1 1 1 1 1 1 0 0 1 2 2 1 1 1 1 1 2 1 1 1 2 2 2 2 1 1 2 2 3 2 3 3 4 4 5
3 3 2 2 2 2 2 1 1 1 1 2 2 1 1 1 1 1 2 1 1 1 2 2 2 2 2 1 1 2 2 2 2 3 3 3 3 3 3 3 4 5 6
2 2 2 2 2 2 2 2 2 2 2 2 2 2 2 1 1 1 2 2 2 1 2 2 2 2 2 2 2 2 2 2 3 3 3 3 4 4 5 4 4 5 6
2 2 2 2 2 2 2 2 3 2 2 1 2 2 2 2 2 2 2 2 2 2 2 2 2 2 2 3 2 2 3 3 4 4 5 4 4 4 5 5 5 4 5
2 2 2 2 2 2 2 3 3 3 3 3 3 3 3 2 2 2 2 2 2 2 2 2 2 2 2 3 3 3 3 3 3 4 5 6 6 5 6 5 5 5 5
Wind_Direction
149 145 139 136 132 130 126 123 119 118 119 119 119 118 116 113 110 108 107 104 99 96 96 95 91 90 91 93 98 98 97 98 99 95 93 91 92 96 97 97 109 103 93
147 145 139 137 132 131 128 125 121 118 119 119 119 119 118 117 113 111 107 105 103 98 95 94 90 87 88 88 93 99 101 101 100 107 115 117 107 101 104 95 61 77 98
144 144 144 139 135 131 131 128 126 123 122 122 123 122 121 119 115 110 107 104 99 95 93 92 87 84 86 84 87 96 104 110 109 126 175 158 128 123 126 119 115 105 114
143 145 143 138 136 133 131 132 131 129 126 124 123 122 123 121 117 111 107 103 97 92 90 91 88 84 83 84 81 88 100 115 127 189 199 171 153 132 157 173 175 174 170
143 145 139 139 138 135 131 131 134 132 128 124 122 119 117 120 120 116 110 105 100 95 91 92 91 88 87 84 83 86 93 103 165 222 220 220 204 149 203 216 217 215 207
143 145 140 142 142 138 133 130 131 132 130 127 124 125 123 118 121 116 109 106 104 100 94 93 92 93 96 92 85 89 109 138 224 220 226 233 226 173 230 236 232 231 230
143 143 144 142 141 139 136 134 129 131 131 128 125 123 125 119 108 102 98 91 92 102 102 96 93 92 85 84 80 93 121 227 255 251 247 246 243 231 245 247 246 244 239
142 142 145 140 137 136 131 127 125 121 123 122 120 119 117 115 107 98 92 88 81 69 77 94 88 88 75 71 69 86 148 261 255 255 254 255 265 260 257 257 255 254 250
140 142 143 147 144 137 132 127 120 113 110 111 111 111 111 109 104 96 90 82 73 65 44 54 78 60 18 272 254 262 262 269 268 263 257 254 256 265 266 267 262 262 258
132 135 141 143 147 145 135 122 117 111 107 104 105 107 111 115 111 101 95 77 65 56 45 29 45 23 356 299 274 265 258 254 261 262 261 259 262 264 265 267 267 268 266
132 126 132 138 137 141 137 129 125 117 112 116 112 114 130 133 127 120 84 70 60 51 41 22 3 6 301 232 238 262 251 259 267 272 274 305 268 263 263 265 269 267 269
152 139 137 137 136 136 137 138 135 132 128 123 119 127 134 128 110 110 109 92 71 47 39 15 333 268 265 265 228 231 255 264 269 267 285 310 275 264 263 265 267 265 267
160 148 137 132 133 136 138 137 130 130 127 121 112 117 129 135 130 126 130 133 262 301 319 326 292 290 290 295 292 276 278 279 273 275 298 343 294 280 270 265 265 267 267
154 148 135 127 121 126 130 131 124 120 112 98 92 91 90 69 40 31 16 352 317 310 323 317 307 300 294 289 285 283 281 278 277 280 304 349 302 296 290 280 274 272 272
158 149 136 123 118 118 119 127 122 111 102 95 83 78 72 66 47 32 13 3 342 330 324 321 309 304 296 297 293 291 288 283 280 276 287 330 296 302 300 292 286 282 279
166 156 132 125 124 121 120 116 109 105 103 92 83 78 80 63 28 358 350 353 348 333 325 312 307 297 293 295 295 293 289 285 281 281 285 293 287 296 300 300 299 297 291
166 153 147 141 134 129 122 112 104 103 108 94 85 76 79 74 354 316 313 323 333 324 319 310 307 300 290 289 289 290 292 289 285 283 287 290 295 310 308 310 308 306 303
161 155 153 149 139 130 126 119 118 114 105 91 67 57 72 68 317 292 291 304 324 322 324 311 308 299 294 297 299 298 293 290 286 289 289 295 301 306 317 330 319 316 314
161 157 150 145 143 138 139 136 132 134 122 108 75 12 343 300 274 272 282 307 321 327 325 315 313 303 298 307 304 300 297 289 290 295 293 304 311 313 310 329 334 324 318
149 150 146 143 142 139 145 145 135 134 132 128 103 52 9 338 281 264 253 296 319 306 319 322 317 312 300 313 309 303 295 287 283 287 290 302 321 322 320 319 316 322 325
135 140 143 142 143 150 162 171 169 184 189 186 147 66 33 2 326 291 266 255 279 287 309 321 309 290 324 330 295 302 286 262 264 274 298 297 324 331 335 331 327 323 320
144 145 144 153 154 163 175 167 181 189 212 216 211 211 283 346 340 321 289 260 258 266 277 310 311 278 290 314 289 283 275 248 215 283 293 292 314 331 334 331 329 326 323
155 156 160 162 161 167 163 140 140 174 202 212 218 225 241 250 252 289 306 283 278 271 268 282 297 274 259 261 282 274 273 276 306 258 268 280 305 315 318 323 319 322 324
172 162 165 168 172 171 175 184 194 224 240 248 249 237 236 240 240 255 279 270 267 272 278 282 297 270 251 249 247 261 277 286 268 280 257 270 299 302 306 305 308 316 321
169 163 170 176 181 182 193 203 214 224 242 249 250 240 243 245 255 254 258 259 255 266 280 284 287 263 249 250 249 254 256 259 254 260 272 281 289 288 296 296 296 299 309
159 163 178 187 194 199 208 213 221 230 232 234 245 252 253 248 251 259 253 249 253 258 272 274 275 268 253 248 249 248 253 250 256 261 270 284 287 288 289 284 284 289 297
Height
1525 1526 1528 1530 1531 1533 1534 1535 1536 1536 1537 1537 1538 1538 1539 1539 1539 1539 1540 1540 1540 1540 1540 1540 1540 1540 1540 1540 1540 1540 1540 1540 1539 1539 1539 1539 1539 1539 1539 1539 1539 1539 1538
1524 1526 1527 1529 1531 1532 1534 1535 1536 1536 1537 1537 1538 1538 1538 1539 1539 1539 1539 1540 1540 1540 1540 1540 1540 1540 1540 1540 1540 1540 1540 1540 1540 1539 1539 1539 1539 1539 1539 1539 1539 1539 1538
1523 1525 1527 1529 1531 1532 1534 1535 1535 1536 1536 1537 1537 1538 1538 1538 1539 1539 1539 1539 1539 1540 1540 1540 1540 1540 1540 1540 1540 1540 1540 1540 1540 1540 1540 1540 1540 1539 1539 1539 1539 1539 1538
1523 1525 1527 1529 1531 1532 1533 1534 1535 1535 1536 1536 1537 1537 1538 1538 1538 1538 1538 1539 1539 1539 1539 1539 1540 1540 1540 1540 1540 1540 1539 1539 1539 1539 1540 1541 1540 1539 1539 1539 1539 1538 1538
1524 1526 1527 1529 1530 1532 1533 1534 1534 1535 1535 1536 1536 1537 1537 1537 1538 1538 1538 1538 1538 1538 1539 1539 1539 1539 1539 1539 1539 1539 1539 1539 1539 1539 1540 1540 1540 1539 1538 1538 1538 1538 1538
1524 1525 1527 1529 1530 1531 1532 1533 1534 1534 1535 1535 1536 1536 1536 1537 1537 1537 1537 1537 1537 1538 1538 1538 1538 1538 1538 1538 1538 1538 1538 1538 1538 1539 1539 1539 1539 1538 1538 1538 1537 1537 1537
1523 1525 1527 1528 1530 1531 1532 1533 1533 1534 1534 1535 1535 1535 1536 1536 1536 1536 1537 1537 1537 1537 1537 1537 1537 1537 1537 1537 1536 1536 1537 1537 1537 1538 1537 1537 1537 1537 1537 1537 1537 1537 1537
1523 1524 1526 1528 1529 1530 1531 1532 1533 1533 1534 1534 1534 1535 1535 1535 1535 1536 1536 1536 1536 1536 1536 1536 1535 1535 1535 1535 1535 1535 1535 1535 1535 1536 1536 1536 1535 1535 1535 1535 1535 1535 1535
1522 1524 1525 1527 1529 1530 1531 1531 1532 1533 1533 1533 1534 1534 1534 1535 1535 1535 1535 1535 1535 1535 1534 1534 1534 1534 1534 1533 1533 1533 1533 1533 1534 1534 1534 1534 1533 1533 1533 1533 1533 1533 1533
1521 1523 1524 1526 1528 1529 1530 1530 1531 1532 1532 1533 1533 1533 1534 1534 1534 1534 1534 1534 1533 1533 1533 1533 1532 1532 1532 1532 1532 1532 1532 1531 1532 1532 1532 1531 1531 1531 1531 1531 1531 1531 1531
1520 1522 1523 1525 1526 1527 1529 1529 1530 1531 1531 1532 1532 1532 1533 1533 1533 1533 1533 1532 1532 1532 1531 1531 1531 1530 1530 1530 1529 1529 1529 1530 1530 1530 1529 1529 1528 1528 1528 1528 1528 1529 1529
1519 1521 1522 1524 1525 1526 1527 1528 1529 1530 1530 1531 1531 1531 1532 1532 1532 1531 1531 1531 1531 1530 1530 1529 1529 1529 1528 1528 1528 1527 1527 1527 1527 1527 1527 1526 1526 1526 1526 1525 1526 1526 1526
1518 1519 1521 1522 1524 1525 1526 1527 1528 1529 1529 1530 1530 1530 1530 1530 1530 1530 1530 1529 1529 1529 1528 1527 1527 1527 1526 1526 1525 1525 1525 1525 1525 1524 1524 1523 1523 1523 1523 1523 1522 1522 1522
1516 1518 1520 1521 1522 1524 1525 1526 1526 1527 1528 1528 1528 1528 1529 1529 1528 1528 1528 1527 1527 1527 1526 1525 1525 1525 1524 1524 1523 1523 1523 1522 1522 1522 1521 1520 1520 1520 1520 1519 1519 1519 1519
1515 1516 1518 1520 1521 1522 1523 1524 1525 1525 1526 1527 1527 1527 1527 1527 1527 1526 1526 1525 1525 1524 1524 1523 1523 1522 1522 1522 1521 1521 1520 1520 1519 1518 1518 1517 1517 1517 1516 1516 1516 1516 1515
1514 1515 1517 1519 1520 1521 1522 1523 1523 1524 1524 1525 1525 1525 1525 1525 1525 1524 1524 1523 1523 1522 1522 1521 1521 1520 1520 1519 1519 1518 1517 1517 1516 1515 1515 1514 1513 1513 1513 1513 1512 1512 1512
1513 1514 1516 1517 1518 1520 1520 1521 1521 1522 1523 1523 1523 1523 1523 1523 1523 1522 1522 1521 1521 1520 1519 1519 1518 1518 1517 1516 1516 1515 1515 1514 1513 1512 1512 1511 1511 1510 1509 1509 1509 1508 1508
1512 1513 1515 1516 1517 1518 1519 1519 1520 1520 1520 1521 1521 1521 1521 1521 1520 1520 1520 1519 1518 1518 1517 1517 1516 1515 1515 1514 1513 1512 1512 1511 1510 1510 1509 1508 1508 1507 1506 1505 1505 1505 1504
1511 1512 1513 1514 1515 1516 1517 1518 1518 1518 1518 1519 1519 1519 1518 1519 1518 1518 1517 1517 1516 1515 1515 1514 1513 1513 1512 1511 1511 1510 1509 1508 1507 1507 1506 1505 1504 1504 1503 1502 1501 1501 1500
1510 1511 1512 1513 1514 1515 1516 1516 1516 1516 1516 1517 1517 1517 1516 1516 1516 1516 1515 1514 1514 1513 1512 1512 1511 1510 1510 1509 1508 1507 1506 1505 1505 1504 1503 1503 1502 1501 1500 1499 1498 1497 1496
1509 1510 1511 1512 1513 1514 1514 1514 1514 1514 1515 1515 1515 1514 1514 1514 1513 1513 1512 1512 1511 1511 1510 1509 1509 1508 1507 1506 1505 1504 1503 1503 1502 1501 1501 1500 1499 1498 1497 1496 1495 1494 1493
1507 1508 1509 1511 1511 1512 1512 1512 1512 1513 1512 1512 1512 1512 1511 1511 1510 1510 1509 1509 1508 1508 1508 1507 1506 1505 1504 1504 1503 1503 1502 1502 1500 1499 1498 1497 1496 1495 1494 1493 1492 1491 1490
1506 1507 1508 1509 1509 1510 1510 1510 1510 1510 1510 1509 1509 1509 1508 1508 1507 1507 1506 1506 1506 1505 1505 1504 1503 1503 1502 1502 1501 1502 1502 1500 1498 1497 1495 1495 1494 1492 1491 1490 1489 1487 1486
1505 1506 1507 1507 1508 1508 1508 1508 1508 1508 1507 1507 1507 1506 1505 1505 1504 1504 1503 1503 1503 1502 1502 1501 1500 1500 1499 1499 1499 1498 1499 1497 1497 1495 1494 1492 1491 1490 1488 1487 1485 1484 1482
1503 1504 1505 1506 1506 1506 1506 1505 1505 1505 1505 1504 1504 1503 1503 1502 1501 1501 1500 1500 1500 1499 1498 1498 1497 1496 1496 1496 1496 1495 1495 1494 1494 1493 1491 1489 1488 1487 1485 1484 1482 1480 1479
1502 1502 1503 1504 1504 1504 1503 1503 1503 1503 1502 1502 1501 1500 1500 1499 1498 1498 1497 1497 1496 1496 1495 1495 1494 1493 1493 1492 1492 1492 1492 1491 1490 1490 1488 1486 1485 1483 1482 1480 1479 1477 1475